This is the latest recevied weather packets stored in our database for station/object SP1BMW-13. If no packets are shown the sender has not sent any weather packets the latest 10 day(s).
| Time | Temp. | Humidity | Pressure | Rain* | Wind** | Luminosity | Snow |
|---|---|---|---|---|---|---|---|
| 1778007347 | 11.67° C | 92% | 1007.7 hPa | 0 mm | 0 m/s | 0 W/m² | - |
| 1778007286 | 11.67° C | 92% | 1007.8 hPa | 0 mm | 0.45 m/s, 342° | 0 W/m² | - |
| 1778007227 | 11.67° C | 92% | 1008 hPa | 0 mm | 1.34 m/s, 328° | 0 W/m² | - |
| 1778007167 | 11.67° C | 92% | 1007.9 hPa | 0 mm | 0.89 m/s, 329° | 0 W/m² | - |
| 1778007107 | 11.67° C | 92% | 1007.9 hPa | 0 mm | 1.79 m/s, 331° | 0 W/m² | - |
| 1778007046 | 11.67° C | 92% | 1007.8 hPa | 0 mm | 0 m/s | 0 W/m² | - |
| 1778006986 | 11.67° C | 92% | 1007.8 hPa | 0 mm | 0.89 m/s, 294° | 0 W/m² | - |
| 1778006926 | 11.67° C | 92% | 1007.9 hPa | 0 mm | 0 m/s | 0 W/m² | - |
| 1778006866 | 11.67° C | 92% | 1007.9 hPa | 0 mm | 0.89 m/s, 14° | 1 W/m² | - |
| 1778006806 | 11.67° C | 92% | 1007.8 hPa | 0 mm | 0.89 m/s, 335° | 1 W/m² | - |
| 1778006746 | 11.67° C | 92% | 1007.9 hPa | 0 mm | 0.45 m/s, 332° | 1 W/m² | - |
| 1778006686 | 11.67° C | 92% | 1007.9 hPa | 0 mm | 0.89 m/s, 295° | 1 W/m² | - |
| 1778006626 | 11.67° C | 92% | 1007.9 hPa | 0 mm | 0.45 m/s, 296° | 1 W/m² | - |
| 1778006566 | 12.22° C | 92% | 1007.9 hPa | 0 mm | 1.34 m/s, 330° | 1 W/m² | - |
| 1778006507 | 12.22° C | 92% | 1007.8 hPa | 0 mm | 0.89 m/s, 318° | 1 W/m² | - |
| 1778006446 | 12.22° C | 92% | 1007.8 hPa | 0 mm | 0.89 m/s, 328° | 1 W/m² | - |
| 1778006389 | 12.22° C | 92% | 1007.9 hPa | 0 mm | 0.45 m/s, 326° | 1 W/m² | - |
| 1778006326 | 12.22° C | 92% | 1007.9 hPa | 0 mm | 0 m/s | 1 W/m² | - |
| 1778006266 | 12.22° C | 92% | 1007.8 hPa | 0 mm | 0 m/s | 1 W/m² | - |
| 1778006206 | 12.22° C | 92% | 1007.9 hPa | 0 mm | 1.34 m/s, 14° | 1 W/m² | - |
| 1778006147 | 12.22° C | 92% | 1007.8 hPa | 0 mm | 0.45 m/s, 330° | 1 W/m² | - |
| 1778006087 | 12.22° C | 92% | 1007.9 hPa | 0 mm | 0.89 m/s, 333° | 1 W/m² | - |
| 1778006027 | 12.22° C | 92% | 1007.9 hPa | 0 mm | 0.45 m/s, 358° | 1 W/m² | - |
| 1778005967 | 12.22° C | 92% | 1008 hPa | 0 mm | 0.89 m/s, 43° | 2 W/m² | - |
| 1778005907 | 12.22° C | 92% | 1007.8 hPa | 0 mm | 0.45 m/s, 31° | 2 W/m² | - |
* Rain latest hour (hover to see other rain measurements)
** Current wind speed in m/s (hover to see current wind gust speed)